Hourly Weather Holzminden

Today, 16 April, Friday

Time Temperature Precipitation Wind Pressure Humidity
00:00 +2°C° 0 mm 1 mps 760 mmHg 84%
01:00 +2°C° 0 mm 1 mps 760 mmHg 82%
02:00 +2°C° 0 mm 1 mps 760 mmHg 80%
03:00 +2°C° 0 mm 1 mps 760 mmHg 79%
04:00 +2°C° 0 mm 1 mps 760 mmHg 78%
05:00 +3°C° 0 mm 1 mps 760 mmHg 76%
06:00 +3°C° 0 mm 1 mps 760 mmHg 75%
07:00 +3°C° 0 mm 2 mps 760 mmHg 74%
08:00 +4°C° 0 mm 2 mps 760 mmHg 68%
09:00 +5°C° 0 mm 3 mps 760 mmHg 61%
10:00 +6°C° 0 mm 4 mps 760 mmHg 55%
11:00 +7°C° 0 mm 4 mps 759 mmHg 52%
12:00 +8°C° 0 mm 4 mps 759 mmHg 49%
13:00 +10°C° 0 mm 4 mps 759 mmHg 46%
14:00 +10°C° 0 mm 4 mps 759 mmHg 46%
15:00 +10°C° 0 mm 4 mps 758 mmHg 46%
16:00 +10°C° 0 mm 4 mps 758 mmHg 45%
17:00 +9°C° 0 mm 3 mps 758 mmHg 53%
18:00 +7°C° 0 mm 3 mps 758 mmHg 60%
19:00 +5°C° 0 mm 3 mps 758 mmHg 67%
20:00 +4°C° 0 mm 2 mps 759 mmHg 72%
21:00 +3°C° 0 mm 2 mps 759 mmHg 77%
22:00 +3°C° 0 mm 1 mps 759 mmHg 82%
23:00 +2°C° 0 mm 1 mps 759 mmHg 83%

Tomorrow, 17 April, Saturday

Time Temperature Precipitation Wind Pressure Humidity
00:00 +2°C° 0 mm 1 mps 759 mmHg 84%
01:00 +1°C° 0 mm 1 mps 759 mmHg 86%
02:00 +1°C° 0 mm 1 mps 759 mmHg 86%
03:00 +1°C° 0 mm 1 mps 759 mmHg 87%
04:00 +1°C° 0 mm 1 mps 759 mmHg 87%
05:00 +2°C° 0 mm 1 mps 759 mmHg 82%
06:00 +3°C° 0 mm 1 mps 758 mmHg 77%
07:00 +4°C° 0 mm 1 mps 758 mmHg 72%
08:00 +4°C° 0 mm 2 mps 758 mmHg 66%
09:00 +6°C° 0 mm 2 mps 758 mmHg 60%
10:00 +8°C° 0 mm 3 mps 758 mmHg 54%
11:00 +7°C° 0 mm 3 mps 758 mmHg 59%
12:00 +7°C° 0 mm 3 mps 758 mmHg 63%
13:00 +7°C° 0 mm 3 mps 758 mmHg 68%
14:00 +7°C° 0 mm 3 mps 757 mmHg 69%
15:00 +7°C° 0 mm 3 mps 757 mmHg 70%
16:00 +8°C° 0 mm 3 mps 757 mmHg 71%
17:00 +7°C° 0 mm 2 mps 757 mmHg 75%
18:00 +7°C° 0 mm 2 mps 757 mmHg 78%
19:00 +7°C° 0 mm 1 mps 757 mmHg 82%
20:00 +7°C° 0 mm 1 mps 757 mmHg 84%
21:00 +7°C° 0 mm 1 mps 757 mmHg 86%
22:00 +6°C° 0 mm 1 mps 757 mmHg 88%
23:00 +6°C° 0 mm 1 mps 757 mmHg 89%

Day after tomorrow, 18 April, Sunday

Time Temperature Precipitation Wind Pressure Humidity
00:00 +6°C° 0 mm 1 mps 757 mmHg 90%
01:00 +6°C° 0 mm 1 mps 757 mmHg 92%
02:00 +6°C° 0 mm 1 mps 756 mmHg 92%
03:00 +6°C° 0 mm 1 mps 756 mmHg 92%
04:00 +6°C° 0 mm 1 mps 756 mmHg 92%
05:00 +6°C° 0.2 mm 1 mps 756 mmHg 94%
06:00 +6°C° 0.2 mm 1 mps 756 mmHg 95%
07:00 +6°C° 0.2 mm 1 mps 756 mmHg 96%
08:00 +7°C° 0.2 mm 1 mps 756 mmHg 96%
09:00 +7°C° 0.2 mm 1 mps 756 mmHg 96%
10:00 +7°C° 0.2 mm 1 mps 756 mmHg 96%
11:00 +8°C° 0 mm 1 mps 756 mmHg 93%
12:00 +9°C° 0 mm 1 mps 756 mmHg 89%
13:00 +9°C° 0 mm 1 mps 756 mmHg 86%
14:00 +10°C° 0 mm 1 mps 756 mmHg 83%
15:00 +11°C° 0 mm 1 mps 755 mmHg 80%
16:00 +11°C° 0 mm 1 mps 755 mmHg 76%
17:00 +11°C° 0 mm 1 mps 755 mmHg 81%
18:00 +10°C° 0 mm 1 mps 755 mmHg 85%
19:00 +9°C° 0 mm 1 mps 755 mmHg 90%
20:00 +9°C° 0.4 mm 1 mps 755 mmHg 91%
21:00 +9°C° 0.4 mm 1 mps 755 mmHg 93%
22:00 +8°C° 0.4 mm 1 mps 755 mmHg 94%
23:00 +8°C° 0.5 mm 1 mps 755 mmHg 95%

19 April, Monday

Time Temperature Precipitation Wind Pressure Humidity
00:00 +8°C° 0.5 mm 1 mps 755 mmHg 96%
01:00 +8°C° 0.5 mm 1 mps 755 mmHg 97%
02:00 +8°C° 0.1 mm 1 mps 755 mmHg 97%
03:00 +8°C° 0.1 mm 1 mps 755 mmHg 98%
04:00 +8°C° 0.1 mm 1 mps 754 mmHg 98%
05:00 +8°C° 0 mm 1 mps 754 mmHg 97%
06:00 +8°C° 0 mm 1 mps 754 mmHg 97%
07:00 +9°C° 0 mm 1 mps 754 mmHg 97%
08:00 +9°C° 0.1 mm 1 mps 754 mmHg 93%
09:00 +10°C° 0.1 mm 1 mps 754 mmHg 90%
10:00 +11°C° 0.1 mm 1 mps 754 mmHg 87%
11:00 +12°C° 0.2 mm 2 mps 754 mmHg 82%
12:00 +12°C° 0.2 mm 2 mps 753 mmHg 78%
13:00 +13°C° 0.2 mm 2 mps 753 mmHg 74%
14:00 +13°C° 0.1 mm 2 mps 753 mmHg 72%
15:00 +14°C° 0.1 mm 2 mps 753 mmHg 71%
16:00 +13°C° 0.1 mm 3 mps 752 mmHg 69%
17:00 +13°C° 0.1 mm 2 mps 752 mmHg 75%
18:00 +12°C° 0.1 mm 2 mps 752 mmHg 81%
19:00 +10°C° 0.1 mm 2 mps 752 mmHg 87%
20:00 +9°C° 0 mm 2 mps 752 mmHg 89%
21:00 +10°C° 0 mm 1 mps 752 mmHg 90%
22:00 +9°C° 0 mm 1 mps 752 mmHg 92%
23:00 +9°C° 0.1 mm 1 mps 752 mmHg 92%

20 April, Tuesday

Time Temperature Precipitation Wind Pressure Humidity
00:00 +8°C° 0.1 mm 0 mps 752 mmHg 92%
01:00 +8°C° 0.1 mm 0 mps 752 mmHg 92%
02:00 +7°C° 0.1 mm 0 mps 752 mmHg 92%
03:00 +7°C° 0.1 mm 0 mps 751 mmHg 93%
04:00 +7°C° 0.1 mm 0 mps 751 mmHg 93%
05:00 +7°C° 0 mm 0 mps 751 mmHg 91%
06:00 +8°C° 0 mm 0 mps 751 mmHg 90%
07:00 +8°C° 0 mm 0 mps 751 mmHg 88%
08:00 +10°C° 0 mm 1 mps 751 mmHg 80%
09:00 +12°C° 0 mm 1 mps 751 mmHg 73%
10:00 +13°C° 0 mm 2 mps 751 mmHg 65%
11:00 +13°C° 0 mm 2 mps 750 mmHg 62%
12:00 +14°C° 0 mm 2 mps 750 mmHg 58%
13:00 +15°C° 0 mm 2 mps 750 mmHg 55%
14:00 +15°C° 0 mm 2 mps 749 mmHg 54%
15:00 +15°C° 0 mm 1 mps 749 mmHg 54%
16:00 +15°C° 0 mm 1 mps 748 mmHg 53%
17:00 +14°C° 0 mm 1 mps 748 mmHg 59%
18:00 +12°C° 0 mm 1 mps 748 mmHg 64%
19:00 +10°C° 0 mm 0 mps 748 mmHg 69%
20:00 +9°C° 0 mm 0 mps 748 mmHg 72%
21:00 +8°C° 0 mm 0 mps 748 mmHg 75%
22:00 +8°C° 0 mm 0 mps 748 mmHg 77%
23:00 +7°C° 0 mm 0 mps 748 mmHg 78%

21 April, Wednesday

Time Temperature Precipitation Wind Pressure Humidity
00:00 +7°C° 0 mm 0 mps 748 mmHg 79%
01:00 +7°C° 0 mm 0 mps 748 mmHg 80%
02:00 +7°C° 0 mm 0 mps 748 mmHg 81%
03:00 +7°C° 0 mm 0 mps 748 mmHg 81%
04:00 +7°C° 0 mm 0 mps 747 mmHg 82%
05:00 +7°C° 0 mm 0 mps 747 mmHg 81%
06:00 +8°C° 0 mm 0 mps 747 mmHg 80%
07:00 +8°C° 0 mm 0 mps 747 mmHg 78%
08:00 +10°C° 0 mm 0 mps 748 mmHg 75%
09:00 +11°C° 0 mm 0 mps 748 mmHg 71%
10:00 +13°C° 0 mm 1 mps 748 mmHg 67%
11:00 +14°C° 0.2 mm 1 mps 747 mmHg 64%
12:00 +15°C° 0.2 mm 1 mps 747 mmHg 60%
13:00 +16°C° 0.2 mm 1 mps 747 mmHg 57%
14:00 +16°C° 0.4 mm 1 mps 747 mmHg 59%
15:00 +15°C° 0.4 mm 1 mps 747 mmHg 61%
16:00 +15°C° 0.4 mm 1 mps 747 mmHg 63%
17:00 +14°C° 0.5 mm 1 mps 747 mmHg 69%
18:00 +13°C° 0.5 mm 1 mps 747 mmHg 75%
19:00 +12°C° 0.5 mm 1 mps 747 mmHg 81%
20:00 +11°C° 0.1 mm 1 mps 747 mmHg 85%
21:00 +9°C° 0.1 mm 2 mps 748 mmHg 90%
22:00 +8°C° 0.1 mm 2 mps 748 mmHg 94%
23:00 +7°C° 0 mm 3 mps 749 mmHg 95%
Show more